| time (UTC) | temp F | wind direction | speed MPH | gust MPH | rain 1hr in | rain 24hr in | rain mn in | humidity % | barometer mb |
| 20260504203603 | 75 | 142 | 1.0 | 6.0 | 0.00 | 0.25 | 0.25 | 67 | 1003.2 |
| 20260504202724 | 75 | 138 | 1.0 | 7.0 | 0.00 | 0.25 | 0.25 | 66 | 1003.2 |
| 20260504201824 | 74 | 142 | 1.0 | 8.0 | 0.00 | 0.25 | 0.25 | 72 | 1003.3 |
| 20260504200903 | 73 | 132 | 1.0 | 7.0 | 0.00 | 0.25 | 0.25 | 74 | 1003.3 |
| 20260504200003 | 72 | 141 | 2.0 | 7.0 | 0.00 | 0.25 | 0.25 | 75 | 1003.2 |
| 20260504195403 | 72 | 140 | 2.0 | 9.0 | 0.00 | 0.25 | 0.25 | 77 | 1003.2 |
| 20260504194524 | 70 | 134 | 1.0 | 4.0 | 0.00 | 0.25 | 0.25 | 82 | 1003.3 |
| 20260504193624 | 69 | 144 | 1.0 | 7.0 | 0.00 | 0.25 | 0.25 | 83 | 1003.7 |
| 20260504192703 | 68 | 139 | 0.0 | 2.0 | 0.00 | 0.25 | 0.25 | 87 | 1003.9 |
| 20260504191803 | 66 | 144 | 1.0 | 7.0 | 0.00 | 0.25 | 0.25 | 89 | 1003.7 |
| 20260504190903 | 64 | 141 | 2.0 | 8.0 | 0.00 | 0.25 | 0.25 | 88 | 1003.6 |
| 20260504190004 | 63 | 136 | 0.0 | 7.0 | 0.01 | 0.25 | 0.25 | 91 | 1003.8 |
| 20260504185403 | 63 | 134 | 0.0 | 1.0 | 0.01 | 0.25 | 0.25 | 90 | 1004.8 |
| 20260504184524 | 63 | 134 | 0.0 | 1.0 | 0.02 | 0.25 | 0.25 | 89 | 1005.2 |
| 20260504183624 | 63 | 143 | 0.0 | 1.0 | 0.03 | 0.25 | 0.25 | 90 | 1005.2 |
| 20260504182703 | 63 | 146 | 0.0 | 3.0 | 0.07 | 0.25 | 0.25 | 89 | 1004.9 |
| 20260504181803 | 62 | 142 | 1.0 | 7.0 | 0.13 | 0.25 | 0.25 | 88 | 1004.8 |
| 20260504180903 | 61 | 143 | 1.0 | 7.0 | 0.16 | 0.25 | 0.25 | 89 | 1004.9 |
| 20260504180024 | 61 | 144 | 3.0 | 10.0 | 0.15 | 0.24 | 0.24 | 89 | 1004.7 |
| 20260504175403 | 61 | 143 | 2.0 | 8.0 | 0.16 | 0.24 | 0.24 | 90 | 1004.7 |
| 20260504174503 | 61 | 130 | 1.0 | 2.0 | 0.17 | 0.23 | 0.23 | 91 | 1005.7 |
| 20260504173624 | 61 | 130 | 0.0 | 2.0 | 0.19 | 0.22 | 0.23 | 91 | 1005.5 |
| 20260504172703 | 61 | 131 | 0.0 | 1.0 | 0.18 | 0.18 | 0.18 | 90 | 1005.4 |
| 20260504171803 | 61 | 130 | 1.0 | 2.0 | 0.12 | 0.12 | 0.12 | 87 | 1005.5 |
| 20260504170903 | 62 | 148 | 0.0 | 2.0 | 0.09 | 0.09 | 0.09 | 86 | 1005.7 |
| 20260504150924 | 68 | 137 | 1.0 | 2.0 | 0.00 | 0.00 | 0.00 | 62 | 1007.1 |
| 20260504140903 | 68 | 144 | 2.0 | 7.0 | 0.00 | 0.00 | 0.00 | 64 | 1006.9 |
| 20260504081803 | 63 | 0 | 0.0 | 0.0 | 0.00 | 0.00 | 0.00 | 70 | 1008.0 |
| 20260504080903 | 63 | 0 | 0.0 | 0.0 | 0.00 | 0.00 | 0.00 | 69 | 1007.9 |
| 20260504045403 | 68 | 136 | 2.0 | 5.0 | 0.00 | 0.00 | 0.00 | 56 | 1007.5 |
| 20260504044504 | 68 | 148 | 2.0 | 5.0 | 0.00 | 0.00 | 0.00 | 56 | 1007.6 |
| 20260504043603 | 68 | 163 | 1.0 | 7.0 | 0.00 | 0.00 | 0.00 | 55 | 1007.8 |
| 20260504042703 | 69 | 148 | 1.0 | 10.0 | 0.00 | 0.00 | 0.00 | 54 | 1008.2 |
| 20260504041803 | 69 | 152 | 1.0 | 6.0 | 0.00 | 0.00 | 0.00 | 54 | 1008.4 |
| 20260504040924 | 69 | 181 | 2.0 | 6.0 | 0.00 | 0.00 | 0.00 | 54 | 1008.5 |
| 20260504040003 | 69 | 159 | 1.0 | 3.0 | 0.00 | 0.00 | 0.00 | 54 | 1008.0 |
| 20260504035403 | 69 | 134 | 1.0 | 4.0 | 0.00 | 0.00 | 0.00 | 54 | 1007.9 |
| 20260504034503 | 69 | 147 | 1.0 | 6.0 | 0.00 | 0.00 | 0.00 | 55 | 1008.7 |
| 20260504033603 | 69 | 138 | 1.0 | 3.0 | 0.00 | 0.00 | 0.00 | 53 | 1008.9 |
| 20260504032703 | 69 | 136 | 1.0 | 2.0 | 0.00 | 0.00 | 0.00 | 53 | 1009.1 |
| 20260504031803 | 69 | 141 | 1.0 | 3.0 | 0.00 | 0.00 | 0.00 | 53 | 1009.1 |
| 20260504030903 | 69 | 127 | 0.0 | 1.0 | 0.00 | 0.00 | 0.00 | 53 | 1009.1 |
| 20260504030003 | 70 | 133 | 1.0 | 2.0 | 0.00 | 0.00 | 0.00 | 52 | 1009.0 |
| 20260504025403 | 70 | 139 | 1.0 | 2.0 | 0.00 | 0.00 | 0.00 | 51 | 1008.9 |
| 20260504024503 | 70 | 127 | 1.0 | 2.0 | 0.00 | 0.00 | 0.00 | 51 | 1009.0 |
| 20260504023603 | 71 | 122 | 0.0 | 3.0 | 0.00 | 0.00 | 0.00 | 51 | 1009.1 |
| 20260504022703 | 71 | 132 | 1.0 | 4.0 | 0.00 | 0.00 | 0.00 | 50 | 1009.0 |
| 20260504021803 | 72 | 326 | 0.0 | 5.0 | 0.00 | 0.00 | 0.00 | 50 | 1009.0 |
| 20260504020903 | 72 | 355 | 1.0 | 5.0 | 0.00 | 0.00 | 0.00 | 48 | 1008.9 |
| 20260504020004 | 72 | 146 | 1.0 | 5.0 | 0.00 | 0.00 | 0.00 | 48 | 1008.5 |
| 20260504015403 | 72 | 149 | 1.0 | 5.0 | 0.00 | 0.00 | 0.00 | 47 | 1008.6 |
| 20260504014503 | 72 | 133 | 1.0 | 3.0 | 0.00 | 0.00 | 0.00 | 47 | 1008.5 |
| 20260504013603 | 72 | 134 | 1.0 | 2.0 | 0.00 | 0.00 | 0.00 | 47 | 1008.4 |
| 20260504012703 | 72 | 133 | 1.0 | 2.0 | 0.00 | 0.00 | 0.00 | 47 | 1008.4 |
| 20260504011803 | 73 | 143 | 1.0 | 2.0 | 0.00 | 0.00 | 0.00 | 46 | 1008.3 |
| 20260504010903 | 73 | 133 | 1.0 | 2.0 | 0.00 | 0.00 | 0.00 | 46 | 1008.2 |
| 20260504010003 | 73 | 132 | 1.0 | 1.0 | 0.00 | 0.00 | 0.00 | 45 | 1008.3 |
| 20260504005403 | 74 | 134 | 1.0 | 2.0 | 0.00 | 0.00 | 0.00 | 44 | 1008.2 |
| 20260504004503 | 74 | 128 | 1.0 | 2.0 | 0.00 | 0.00 | 0.00 | 44 | 1008.3 |
| 20260504003603 | 75 | 138 | 1.0 | 3.0 | 0.00 | 0.00 | 0.00 | 42 | 1008.3 |
| 20260504002703 | 75 | 138 | 1.0 | 4.0 | 0.00 | 0.00 | 0.00 | 42 | 1008.4 |
| 20260504001825 | 75 | 138 | 2.0 | 6.0 | 0.00 | 0.00 | 0.00 | 41 | 1008.4 |
| 20260504000903 | 76 | 140 | 1.0 | 3.0 | 0.00 | 0.00 | 0.00 | 41 | 1008.3 |
| 20260504000003 | 76 | 143 | 2.0 | 7.0 | 0.00 | 0.00 | 0.00 | 40 | 1008.4 |
| 20260503235403 | 76 | 140 | 2.0 | 7.0 | 0.00 | 0.00 | 0.00 | 39 | 1008.4 |
| 20260503234524 | 77 | 144 | 2.0 | 6.0 | 0.00 | 0.00 | 0.00 | 38 | 1008.5 |
| 20260503233603 | 77 | 148 | 2.0 | 7.0 | 0.00 | 0.00 | 0.00 | 39 | 1008.5 |
| 20260503232703 | 77 | 156 | 2.0 | 7.0 | 0.00 | 0.00 | 0.00 | 38 | 1008.6 |
| 20260503231803 | 77 | 145 | 2.0 | 9.0 | 0.00 | 0.00 | 0.00 | 37 | 1008.7 |
| 20260503230903 | 78 | 168 | 2.0 | 7.0 | 0.00 | 0.00 | 0.00 | 36 | 1008.7 |
| 20260503230003 | 78 | 154 | 2.0 | 8.0 | 0.00 | 0.00 | 0.00 | 36 | 1008.7 |
| 20260503225403 | 78 | 145 | 2.0 | 8.0 | 0.00 | 0.00 | 0.00 | 36 | 1008.9 |
| 20260503224503 | 78 | 305 | 3.0 | 11.0 | 0.00 | 0.00 | 0.00 | 35 | 1009.0 |
| 20260503223603 | 78 | 195 | 3.0 | 11.0 | 0.00 | 0.00 | 0.00 | 35 | 1009.0 |
| 20260503222724 | 78 | 174 | 3.0 | 9.0 | 0.00 | 0.00 | 0.00 | 34 | 1009.0 |
| 20260503221803 | 78 | 316 | 3.0 | 10.0 | 0.00 | 0.00 | 0.00 | 34 | 1009.1 |
| 20260503220924 | 78 | 320 | 3.0 | 14.0 | 0.00 | 0.00 | 0.00 | 35 | 1009.2 |
| 20260503220003 | 77 | 78 | 3.0 | 9.0 | 0.00 | 0.00 | 0.00 | 34 | 1009.3 |
| 20260503215424 | 78 | 14 | 3.0 | 11.0 | 0.00 | 0.00 | 0.00 | 34 | 1009.4 |
| 20260503214503 | 77 | 155 | 3.0 | 13.0 | 0.00 | 0.00 | 0.00 | 34 | 1009.5 |
| 20260503213603 | 77 | 158 | 4.0 | 13.0 | 0.00 | 0.00 | 0.00 | 33 | 1009.5 |
| 20260503212703 | 77 | 302 | 3.0 | 10.0 | 0.00 | 0.00 | 0.00 | 33 | 1009.6 |
| 20260503211803 | 77 | 164 | 3.0 | 8.0 | 0.00 | 0.00 | 0.00 | 34 | 1009.5 |
| 20260503210924 | 76 | 144 | 4.0 | 12.0 | 0.00 | 0.00 | 0.00 | 35 | 1009.5 |
| 20260503210003 | 76 | 142 | 4.0 | 18.0 | 0.00 | 0.00 | 0.00 | 33 | 1009.8 |
| 20260503205403 | 77 | 151 | 3.0 | 8.0 | 0.00 | 0.00 | 0.00 | 34 | 1009.9 |
| 20260503204524 | 77 | 205 | 3.0 | 11.0 | 0.00 | 0.00 | 0.00 | 34 | 1010.0 |